Date,TemperatureHighF,TemperatureAvgF,TemperatureLowF,DewpointHighF,DewpointAvgF,DewpointLowF,HumidityHigh,HumidityAvg,HumidityLow,PressureMaxIn,PressureMinIn,WindSpeedMaxMPH,WindSpeedAvgMPH,GustSpeedMaxMPH,PrecipitationSumIn
2013-6-1,78,62,49,56,46,40,84,58,32,31.38,27.57,9,2,9,0.00
2013-6-2,74,62,53,54,47,40,82,60,36,31.38,24.38,10,2,10,0.00
2013-6-3,78,60,46,51,44,38,81,57,33,31.38,23.91,12,2,12,0.00
2013-6-4,86,66,44,58,46,37,82,53,27,31.38,23.97,12,2,12,0.00
2013-6-5,86,66,50,56,48,43,81,58,30,31.38,27.22,9,2,9,0.00
2013-6-6,86,66,50,62,46,37,83,54,24,31.38,23.97,12,2,12,0.00
2013-6-7,68,60,52,51,45,40,72,58,41,31.38,23.91,13,5,13,0.00
2013-6-8,78,61,48,57,45,40,82,60,32,30.94,27.22,10,3,10,0.00
2013-6-9,74,59,50,54,43,36,79,59,32,31.38,24.26,15,3,15,0.00
2013-6-10,72,57,41,51,40,33,78,54,34,31.38,27.81,12,3,12,0.00
2013-6-11,66,56,45,51,42,37,80,61,41,27.81,24.21,15,4,15,0.00
2013-6-12,66,57,48,52,45,41,79,65,45,27.81,27.81,13,3,13,0.00
2013-6-13,71,59,53,55,46,40,85,64,38,27.81,27.81,13,3,13,0.04
2013-6-14,67,61,54,51,46,43,75,59,44,27.81,27.81,9,3,9,0.00
2013-6-15,76,68,44,56,47,37,82,48,37,27.81,27.81,12,3,12,0.00
2013-6-16,74,64,51,56,48,43,80,57,41,27.81,27.81,15,4,15,0.00
2013-6-17,80,66,54,54,48,45,79,56,31,27.81,27.81,9,3,9,0.04
2013-6-18,73,62,52,59,47,41,86,62,35,27.81,27.81,13,3,13,0.00
2013-6-19,69,59,48,54,44,41,83,61,37,27.81,27.81,17,4,17,0.00
2013-6-20,63,58,52,51,46,42,80,65,49,27.81,27.81,15,5,15,0.00
2013-6-21,69,62,55,59,50,46,84,67,52,27.81,27.81,10,3,10,0.00
2013-6-22,81,72,50,62,49,45,84,48,30,27.81,27.81,12,2,12,0.00
2013-6-23,81,68,61,60,56,46,83,68,30,27.81,27.81,9,2,9,0.24
2013-6-24,70,64,58,59,55,53,88,75,56,27.81,27.81,13,3,13,0.24
2013-6-25,73,66,58,62,54,51,88,68,47,27.81,27.81,15,3,15,0.20
2013-6-26,71,68,58,61,56,51,87,67,50,27.81,27.81,15,2,15,0.04
2013-6-27,72,68,60,65,61,56,86,77,66,27.81,27.81,8,1,8,0.24
2013-6-28,88,79,62,70,63,58,88,63,40,27.81,27.81,12,4,12,0.00
2013-6-29,90,86,66,62,59,52,70,41,30,27.81,27.81,9,2,9,0.00
2013-6-30,97,79,58,67,58,52,86,54,27,27.81,27.81,11,3,11,0.00